Weather History for Sedalia, MO

Change the Weather History Date:

Thursday, November 22, 2012

  Actual Average Record
Temperature  
Mean Temperature 59 °F 44 °F  
Max Temperature 71 °F 52 °F 75 °F (1966)
Min Temperature 47 °F 35 °F 12 °F (1937)
Degree Days  
Heating Degree Days 6 21  
Month to date heating degree days 324 365  
Since 1 July heating degree days 683 656  
Cooling Degree Days 0 0  
Month to date cooling degree days 4 0  
Year to date cooling degree days 2111 1487  
Growing Degree Days 8 (Base 50)    
Moisture  
Dew Point 43 °F    
Average Humidity 57    
Maximum Humidity 67    
Minimum Humidity 47    
Precipitation  
Precipitation 0.01 in 0.10 in 0.83 in (1963)
Month to date precipitation 1.50 2.31  
Year to date precipitation 29.42 38.00  
Sea Level Pressure  
Sea Level Pressure 30.00 in    
Wind  
Wind Speed 15 mph (SW)    
Max Wind Speed 30 mph    
Max Gust Speed 39 mph    
Visibility 10 miles    
Events      
T = Trace of Precipitation, MM = Missing Value Source: NWS Daily Summary

Daily Weather History Graph

Daily Weather History Graph

Search for Another Location

Airport:

Trip Planner

Search our weather history database for the weather conditions in past years. The results will help you decide how hot, cold, wet, or windy it might be!

Date:

Astronomy

Nov. 22, 2012 Rise Set
Actual Time 7:03 AM CST 4:54 PM CST
Civil Twilight 6:34 AM CST 5:23 PM CST
Nautical Twilight 6:01 AM CST 5:55 PM CST
Astronomical Twilight 5:29 AM CST 6:27 PM CST
Moon 1:37 PM CST (11/22) 1:26 AM CST (11/22)
Length of Visible Light 10h 49m
Length of Day
9h 51m
Waxing Gibbous, 71% of the Moon is Illuminated
Nov 22
Waxing Gibbous
Nov 28
Full
Dec 6
Last Quarter
Dec 13
New
Dec 19
First Quarter

Hourly Weather History & Observations

Time (CST) Temp. Dew Point Humidity Pressure Visibility Wind Dir Wind Speed Gust Speed Precip Events Conditions
12:53 AM 53.1 °F 37.9 °F 57% 30.03 in 10.0 mi South 12.7 mph - N/A   Clear
1:53 AM 54.0 °F 37.9 °F 55% 30.02 in 10.0 mi South 12.7 mph - N/A   Clear
2:53 AM 53.1 °F 39.0 °F 59% 30.01 in 10.0 mi South 13.8 mph - N/A   Clear
3:53 AM 54.0 °F 39.0 °F 57% 29.99 in 10.0 mi South 11.5 mph - N/A   Clear
4:53 AM 55.0 °F 39.0 °F 55% 29.98 in 10.0 mi South 12.7 mph 20.7 mph N/A   Mostly Cloudy
5:53 AM 57.0 °F 39.0 °F 51% 29.96 in 10.0 mi South 17.3 mph - N/A   Clear
6:53 AM 57.9 °F 39.9 °F 51% 29.96 in 10.0 mi South 20.7 mph 28.8 mph N/A   Clear
7:53 AM 57.9 °F 41.0 °F 53% 29.96 in 10.0 mi South 18.4 mph - N/A   Partly Cloudy
8:53 AM 60.1 °F 42.1 °F 51% 29.96 in 10.0 mi South 16.1 mph 26.5 mph N/A   Clear
9:53 AM 64.0 °F 44.1 °F 48% 29.95 in 10.0 mi SSW 21.9 mph 32.2 mph N/A   Clear
10:53 AM 66.9 °F 46.0 °F 47% 29.94 in 10.0 mi SSW 16.1 mph 29.9 mph N/A   Clear
11:53 AM 69.1 °F 48.0 °F 47% 29.91 in 10.0 mi SSW 19.6 mph 31.1 mph N/A   Clear
12:53 PM 69.1 °F 48.0 °F 47% 29.89 in 10.0 mi SSW 23.0 mph 29.9 mph N/A   Clear
1:53 PM 69.1 °F 48.0 °F 47% 29.88 in 10.0 mi SW 20.7 mph 28.8 mph N/A   Clear
2:53 PM 68.0 °F 48.9 °F 50% 29.89 in 10.0 mi SW 19.6 mph 26.5 mph N/A   Clear
3:53 PM 66.0 °F 51.1 °F 59% 29.91 in 10.0 mi SW 10.4 mph - 0.00 in   Overcast
4:53 PM 64.0 °F 51.1 °F 63% 29.94 in 10.0 mi SW 8.1 mph - 0.00 in   Mostly Cloudy
5:53 PM 63.0 °F 51.1 °F 65% 29.97 in 10.0 mi WSW 6.9 mph - N/A   Overcast
6:53 PM 62.1 °F 51.1 °F 67% 30.00 in 10.0 mi WSW 6.9 mph - N/A   Overcast
7:53 PM 59.0 °F 43.0 °F 55% 30.06 in 10.0 mi NNW 19.6 mph - 0.01 in   Mostly Cloudy
8:53 PM 55.0 °F 39.9 °F 57% 30.12 in 10.0 mi NNW 19.6 mph 27.6 mph N/A   Partly Cloudy
9:53 PM 51.1 °F 39.0 °F 63% 30.15 in 10.0 mi NNW 13.8 mph - N/A   Clear
10:53 PM 48.9 °F 37.9 °F 66% 30.19 in 10.0 mi NNW 11.5 mph - N/A   Clear
11:53 PM 46.9 °F 35.1 °F 63% 30.23 in 10.0 mi NNW 15.0 mph - N/A   Clear